Location: Lake Lucerne
(45.5315°N, 88.8489°W)
Time: 09:33:33
(UTC-05:00)

ARIANE 6 FM1 Upper Stage - Visible Passes

Search period start: 19 September 2024 00:00
Search period end: 29 September 2024 00:00
Orbit: 566 x 594 km, 62.0° (Epoch: 19 September)

Date Brightness Start Highest point End Pass type
(mag) Time Alt. Az. Time Alt. Az. Time Alt. Az.
19 Sep 4.8 03:52:50 11° NNW 03:56:21 27° NE 04:00:05 10° E visible
19 Sep 2.9 05:31:41 10° NW 05:35:57 53° SW 05:40:11 10° SSE visible
19 Sep 4.6 19:38:16 10° SE 19:39:47 12° ESE 19:40:50 11° E visible
19 Sep 3.3 21:14:10 10° SW 21:17:18 49° SW 21:17:18 49° SW visible
20 Sep 4.2 03:58:59 22° NNW 04:01:14 37° NE 04:05:18 10° ESE visible
20 Sep 3.4 05:36:37 10° WNW 05:40:33 33° WSW 05:44:29 10° S visible
20 Sep 4.1 19:41:15 10° SSE 19:44:15 19° ESE 19:47:16 10° ENE visible
20 Sep 3.2 21:18:58 10° SW 21:23:11 59° NW 21:23:54 51° N visible
21 Sep 3.4 04:05:41 51° NNE 04:06:04 53° NE 04:10:20 10° ESE visible
21 Sep 4.0 05:42:09 12° WNW 05:45:06 22° WSW 05:48:25 10° SSW visible
21 Sep 3.6 19:45:03 10° S 19:48:45 29° ESE 19:52:30 10° ENE visible
21 Sep 4.0 21:23:56 10° WSW 21:27:59 40° NW 21:29:53 26° N visible
22 Sep 4.1 04:12:49 31° SE 04:12:49 31° SE 04:15:10 10° SE visible
22 Sep 4.5 05:49:19 14° WSW 05:49:34 14° WSW 05:51:46 10° SW visible
22 Sep 3.0 19:49:14 10° SSW 19:53:19 46° SE 19:57:27 10° NE visible
22 Sep 4.6 21:29:05 10° W 21:32:50 29° NW 21:35:20 17° NNE visible
23 Sep 2.6 19:53:41 10° SSW 19:57:56 74° SE 20:02:15 10° NE visible
23 Sep 5.1 21:34:23 10° W 21:37:45 22° NNW 21:40:25 13° NNE visible
24 Sep 3.0 19:58:21 10° SW 20:02:36 72° NW 20:06:56 10° NE visible
24 Sep 5.4 21:39:50 10° WNW 21:42:42 17° NNW 21:45:15 11° NNE visible
25 Sep 3.7 20:03:12 10° WSW 20:07:20 48° NW 20:11:32 10° NNE visible
25 Sep 5.6 21:45:27 10° NW 21:47:41 14° NNW 21:49:55 10° N visible
26 Sep 4.4 20:08:13 10° WSW 20:12:07 33° NW 20:16:05 10° NNE visible
26 Sep 5.7 21:51:15 10° NW 21:52:43 11° NNW 21:54:12 10° N visible
27 Sep 4.9 20:13:24 10° W 20:16:57 25° NW 20:20:33 10° NNE visible
28 Sep 5.2 20:18:45 10° WNW 20:21:51 19° NNW 20:24:58 10° NNE visible
